Flag for Belgium

Past Weather in Arlon, Luxembourg, Belgium — Yesterday and Last 2 Weeks

Now
68 °F

Scattered clouds.


Feels Like: 68 °F
Forecast: 65 / 52 °F
Wind: 12 mph from West

Location: Luxembourg Airport

Current Time: Jul 3, 2020 at 6:05:00 pm

Latest Report: Jul 3, 2020 at 5:20 pm


Visibility: N/A

Pressure: 30.09 "Hg

Humidity: 49%

Dew Point: 48 °F

Location of ArlonLocation

Past Weather in Arlon — Graph

°F

Arlon Temperature Yesterday

Maximum temperature yesterday: 70 °F (at 3:50 pm)
Minimum temperature yesterday: 59 °F (at 11:20 pm)
Average temperature yesterday: 63 °F

High & Low Weather Summary for the Past Weeks

 TemperatureHumidityPressure
High84 °F (Jun 24, 3:50 pm)100% (Jul 2, 1:20 am)30.33 "Hg (Jul 2, 1:20 am)
Low50 °F (Jun 30, 3:20 am)31% (Jun 24, 5:20 pm)29.83 "Hg (Jul 1, 6:20 am)
Average65 °F67%30.05 "Hg
* Reported Jun 18 4:20 pm — Jul 3 4:50 pm, Arlon. Weather by CustomWeather, © 2020

Note: Actual official high and low records may vary slightly from our data, if they occured in-between our weather recording intervals... More about our weather records

Arlon Weather History for the Previous 24 Hours

Scroll right to see more
 ConditionsComfort  
Time TempWeatherWind HumidityBarometerVisibility
4:50 pm
Fri, Jul 3
70 °FScattered clouds.14 mph50%30.12 "HgN/A
4:20 pm70 °FScattered clouds.15 mph46%30.12 "HgN/A
3:50 pm70 °FScattered clouds.14 mph43%30.12 "HgN/A
2:50 pm66 °FPartly sunny.14 mph52%30.12 "HgN/A
2:20 pm66 °FScattered clouds.13 mph52%30.12 "HgN/A
1:50 pm64 °FBroken clouds.13 mph56%30.12 "HgN/A
1:20 pm66 °FPartly sunny.15 mph49%30.12 "HgN/A
12:50 pm66 °FScattered clouds.14 mph49%30.12 "HgN/A
12:20 pm66 °FScattered clouds.15 mph49%30.12 "HgN/A
11:50 am64 °FPassing clouds.13 mph56%30.12 "HgN/A
11:20 am64 °FPassing clouds.14 mph52%30.12 "HgN/A
10:50 am63 °FPassing clouds.13 mph59%30.12 "HgN/A
10:20 am61 °FPassing clouds.12 mph63%30.12 "HgN/A
9:50 am61 °FPassing clouds.12 mph63%30.12 "HgN/A
9:20 am59 °FPassing clouds.13 mph68%30.12 "HgN/A
8:50 am57 °FPassing clouds.12 mph72%30.09 "HgN/A
8:20 am57 °FPassing clouds.9 mph77%30.09 "HgN/A
7:50 am55 °FSunny.10 mph77%30.09 "Hg10 mi
7:20 am54 °FSunny.9 mph77%30.09 "Hg10 mi
6:50 am52 °FPassing clouds.7 mph82%30.09 "HgN/A
6:20 am52 °FPassing clouds.6 mph82%30.09 "HgN/A
5:50 am52 °FPassing clouds.8 mph88%30.09 "HgN/A
5:20 am52 °FPassing clouds.3 mph88%30.07 "HgN/A
4:50 am52 °FPassing clouds.5 mph88%30.07 "HgN/A
4:20 am52 °FCool.5 mph88%30.07 "HgN/A
3:50 am54 °FCool.5 mph82%30.07 "HgN/A
3:20 am54 °FCool.5 mph88%30.07 "HgN/A
2:50 am54 °FCool.6 mph88%30.07 "HgN/A
2:20 am55 °FCool.7 mph82%30.07 "HgN/A
1:50 am55 °FClear.7 mph82%30.07 "Hg10 mi
1:20 am57 °FClear.7 mph77%30.04 "Hg10 mi
12:50 am57 °FClear.6 mph77%30.04 "Hg10 mi
12:20 am57 °FClear.8 mph77%30.04 "Hg10 mi
11:50 pm
Thu, Jul 2
59 °FClear.7 mph77%30.04 "Hg10 mi
11:20 pm59 °FClear.7 mph77%30.04 "Hg10 mi
10:50 pm61 °FClear.7 mph77%30.04 "Hg10 mi
10:20 pm61 °FPassing clouds.8 mph77%30.01 "HgN/A
9:50 pm61 °FPassing clouds.8 mph77%30.01 "HgN/A
9:20 pm61 °FPassing clouds.7 mph72%30.01 "HgN/A
8:50 pm61 °FPassing clouds.9 mph72%29.98 "HgN/A
8:20 pm63 °FPassing clouds.8 mph64%29.98 "HgN/A
7:50 pm63 °FScattered clouds.15 mph64%29.98 "HgN/A
7:20 pm64 °FPassing clouds.10 mph64%29.98 "HgN/A
6:50 pm64 °FPassing clouds.14 mph64%29.95 "HgN/A
6:20 pm66 °FPassing clouds.14 mph64%29.95 "HgN/A
Weather by CustomWeather, © 2020

See weather overview